Location: Czekanka
(50.4925°N, 19.2643°E)
Time: 07:25:29
(UTC+00:00)

SL-16 R/B - Pass Details

Date: 26 September 2024
Orbit: 842 x 846 km, 71.0° (Epoch: 05 October)

Event Time Altitude Azimuth Distance (km) Brightness Sun altitude
Rises 17:22:21 0° 209° (SSW) 3,393 5.6 -8.9°
Reaches altitude 10° 17:24:48 10° 209° (SSW) 2,461 4.9 -9.3°
Maximum altitude 17:30:28 86° 300° (WNW) 854 2.3 -10.2°
Drops below altitude 10° 17:36:10 10° 29° (NNE) 2,474 4.5 -11.1°
Sets 17:38:37 0° 30° (NNE) 3,412 5.2 -11.5°
